Location: Finney State Fishing Lake and Wildlife Area
(38.1834°N, 100.3310°W)
Time: 12:22:49
(UTC+00:00)

CZ-4C R/B - Pass Details

Date: 17 October 2021
Orbit: 597 x 1405 km, 63.4° (Epoch: 29 November)

Event Time Altitude Azimuth Distance (km) Brightness Sun altitude
Rises 12:19:13 0° 331° (NNW) 3,854 5.3 -7.3°
Reaches altitude 10° 12:21:52 10° 338° (NNW) 3,010 4.8 -6.8°
Maximum altitude 12:28:54 45° 50° (NE) 1,673 4.2 -5.4°
Drops below altitude 10° 12:36:56 10° 121° (ESE) 3,435 6.7 -3.8°
Sets 12:40:08 0° 127° (SE) 4,444 7.2 -3.2°
